Santuari del Far - Susqueda





Hora UTC 02:55
Temperatura 18.8 ºC
Humedad 40.0 %
Presión 1002.5 hPa
Pluja 0.0 mm
Velocidad viento 3.2 km/h
Dirección viento N

Datos diarios 2022-05-23



Hora UTC (invierno +1h; verano +2h)
Temperatura (ºC) Humedad (%) Presión (hPa) Velocidad viento (km/h) Precipitación (mm)
Hora UTC Aire Humedad Presión Vel. Dir. Vel. Max Dir. Intent. máx 5 min.
00:05 20.5 23.0 1004.1 1.6 N 1.6 0.0
00:10 20.6 22.0 1004.2 3.2 N 9.7 0.0
00:15 20.6 22.0 1004.2 4.8 N 14.5 0.0
00:20 20.6 22.0 1004.1 4.8 N 14.5 0.0
00:25 20.6 22.0 1003.8 4.8 N 8.0 0.0
00:30 20.5 22.0 1003.9 4.8 N 6.4 0.0
00:35 20.4 22.0 1004.1 3.2 N 11.3 0.0
00:40 20.3 23.0 1004.0 3.2 N 11.3 0.0
00:45 20.2 24.0 1003.7 6.4 N 11.3 0.0
00:50 20.3 28.0 1003.4 6.4 N 11.3 0.0
00:55 20.3 29.0 1003.3 8.0 N 11.3 0.0
01:00 20.3 31.0 1003.3 3.2 N 9.7 0.0
01:05 20.3 29.0 1003.2 4.8 N 9.7 0.0
01:10 20.3 29.0 1003.2 3.2 N 9.7 0.0
01:15 20.3 31.0 1003.0 3.2 N 9.7 0.0
01:20 20.3 33.0 1002.8 3.2 N 8.0 0.0
01:25 20.4 33.0 1002.9 4.8 N 8.0 0.0
01:30 20.4 32.0 1003.2 3.2 N 8.0 0.0
01:35 20.3 30.0 1003.5 3.2 N 8.0 0.0
01:40 20.0 29.0 1003.4 6.4 N 6.4 0.0
01:45 19.6 30.0 1003.3 3.2 N 8.0 0.0
01:50 19.3 31.0 1003.2 8.0 N 8.0 0.0
01:55 19.2 33.0 1003.1 6.4 N 11.3 0.0
02:00 19.4 34.0 1003.0 1.6 N 11.3 0.0
02:05 19.5 37.0 1003.1 3.2 N 9.7 0.0
02:10 19.6 36.0 1002.9 6.4 N 8.0 0.0
02:15 19.7 37.0 1002.9 4.8 N 8.0 0.0
02:20 19.6 37.0 1002.8 4.8 N 9.7 0.0
02:25 19.5 36.0 1002.8 1.6 N 8.0 0.0
02:30 19.4 37.0 1002.9 6.4 N 8.0 0.0
02:35 19.3 36.0 1002.8 4.8 N 6.4 0.0
02:40 19.2 38.0 1002.6 3.2 N 6.4 0.0
02:45 19.0 39.0 1002.7 3.2 N 6.4 0.0
02:50 18.9 40.0 1002.3 3.2 N 6.4 0.0
02:55 18.8 40.0 1002.5 3.2 N 6.4 0.0
Máxima 22.4 40.0 1004.2 8.0 N 14.5 0.0
Mínima 18.8 22.0 1002.3
Total 0.0